JA9GIL-13 Weather Reports


Display with metric or nautical units.
time (UTC)temp
F
wind
direction
speed
MPH
gust
MPH
rain 1hr
in
rain 24hr
in
rain mn
in
humidity
%
barometer
mb
20260504141334 48 45 1.0 2.0 0.00 0.63 0.54 92 1015.2
20260504140435 48 76 0.0 3.0 0.00 0.65 0.54 92 1015.4
20260504130134 49 80 2.0 5.0 0.00 0.76 0.54 93 1015.0
20260504110434 50 45 1.0 2.0 0.02 0.87 0.54 93 1012.8
20260504100134 51 11 1.0 4.0 0.00 0.90 0.52 93 1011.0
20260504081334 53 29 3.0 6.0 0.11 0.92 0.48 92 1008.0
20260504080434 53 36 3.0 5.0 0.11 0.93 0.48 91 1007.7
20260504070134 55 12 3.0 7.0 0.09 0.93 0.38 84 1006.3
20260504045534 59 34 4.0 11.0 0.00 0.84 0.28 70 1003.3
20260504044634 60 340 4.0 8.0 0.00 0.84 0.28 70 1003.1
20260504043734 60 33 4.0 12.0 0.00 0.84 0.28 68 1003.1
20260504042835 61 42 4.0 12.0 0.00 0.84 0.28 68 1002.9
20260504041934 61 47 4.0 13.0 0.00 0.84 0.28 67 1002.9
20260504041035 62 60 7.0 17.0 0.00 0.84 0.28 67 1002.7
20260504040134 62 296 4.0 11.0 0.00 0.84 0.28 68 1002.7
20260504034334 62 13 5.0 15.0 0.00 0.84 0.28 70 1002.0
20260504033434 62 6 8.0 11.0 0.00 0.84 0.28 70 1002.0
20260504032534 63 48 7.0 13.0 0.00 0.84 0.28 72 1001.9
20260504031635 63 25 7.0 11.0 0.00 0.84 0.28 75 1001.9
20260504030734 62 60 5.0 9.0 0.01 0.84 0.28 77 1001.7
20260504025834 62 86 4.0 15.0 0.01 0.84 0.28 73 1001.7
20260504024934 62 354 7.0 14.0 0.01 0.84 0.28 76 1001.5
20260504024034 61 40 8.0 12.0 0.01 0.84 0.28 82 1001.4
20260504023134 60 21 4.0 8.0 0.01 0.84 0.28 83 1001.5
20260504022235 59 347 6.0 11.0 0.01 0.84 0.28 85 1001.4
20260504021334 59 32 2.0 7.0 0.01 0.84 0.28 86 1001.5
20260504020434 59 47 2.0 16.0 0.00 0.83 0.27 84 1001.5
20260504015534 59 32 7.0 16.0 0.00 0.83 0.27 83 1001.6
20260504014635 60 36 4.0 8.0 0.00 0.83 0.27 84 1001.4
20260504013734 60 31 5.0 8.0 0.00 0.83 0.27 84 1001.3
20260504012834 60 13 3.0 13.0 0.00 0.83 0.27 84 1001.2
20260504011934 61 6 4.0 8.0 0.00 0.83 0.27 84 1001.1
20260504010135 60 321 3.0 10.0 0.00 0.83 0.27 86 1001.0
20260504005234 60 17 4.0 8.0 0.00 0.83 0.27 85 1000.9
20260504004334 60 28 4.0 9.0 0.00 0.83 0.27 84 1000.9
20260504003434 60 13 3.0 11.0 0.00 0.83 0.27 85 1000.8
20260504002535 60 76 5.0 9.0 0.00 0.83 0.27 84 1001.2
20260504001634 60 104 4.0 15.0 0.00 0.83 0.27 83 1001.0
20260504000735 61 341 4.0 8.0 0.00 0.83 0.27 85 1000.7
20260503234935 61 51 2.0 6.0 0.00 0.83 0.27 88 1000.6
20260503234035 61 27 4.0 8.0 0.00 0.83 0.27 89 1000.1
20260503232234 60 9 4.0 6.0 0.00 0.83 0.27 92 1000.1
20260503231334 60 14 3.0 8.0 0.00 0.83 0.27 92 1000.1
20260503225534 60 327 3.0 8.0 0.00 0.83 0.27 95 1000.0
20260503224634 61 15 4.0 8.0 0.00 0.83 0.27 99 1000.2
20260503223734 61 33 2.0 5.0 0.00 0.83 0.27 99 1000.1
20260503222834 62 55 1.0 3.0 0.00 0.83 0.27 99 1000.1
20260503221934 61 71 2.0 3.0 0.00 0.83 0.27 99 1000.3
20260503220134 59 72 2.0 2.0 0.01 0.83 0.27 99 1000.3
20260503213434 58 231 0.0 2.0 0.01 0.83 0.27 97 1000.6
20260503212535 58 203 0.0 2.0 0.01 0.83 0.27 97 1000.6
20260503211635 58 76 0.0 2.0 0.01 0.83 0.27 97 1000.4
20260503205834 58 240 2.0 4.0 0.00 0.81 0.26 97 1000.0
20260503204935 58 45 0.0 2.0 0.00 0.81 0.26 97 999.8
20260503203134 58 66 2.0 6.0 0.00 0.81 0.26 96 1000.1
20260503202235 58 50 2.0 7.0 0.00 0.81 0.26 96 999.8
20260503201335 58 30 2.0 7.0 0.00 0.81 0.26 96 999.8
20260503200435 59 35 2.0 13.0 0.00 0.81 0.26 96 999.8
20260503194635 59 46 2.0 11.0 0.02 0.81 0.26 96 999.1
20260503192834 59 56 4.0 10.0 0.05 0.81 0.26 96 998.8
20260503191033 59 31 3.0 9.0 0.06 0.81 0.26 96 998.2
20260503190134 59 37 2.0 6.0 0.05 0.80 0.26 95 997.9
20260503185235 59 41 2.0 13.0 0.05 0.80 0.25 95 997.9
20260503184334 59 8 4.0 7.0 0.05 0.79 0.24 95 997.9
20260503183433 59 15 2.0 8.0 0.04 0.78 0.22 95 997.9
20260503182534 59 18 4.0 14.0 0.02 0.77 0.21 95 997.6
20260503181633 59 13 5.0 11.0 0.02 0.76 0.20 95 997.4
20260503175835 60 68 6.0 15.0 0.06 0.76 0.20 96 997.0
20260503174934 60 42 7.0 15.0 0.07 0.74 0.19 97 997.1
20260503174034 60 30 2.0 11.0 0.07 0.74 0.19 97 997.3
20260503173134 60 23 4.0 8.0 0.09 0.74 0.19 98 997.0
20260503172234 61 57 4.0 11.0 0.11 0.74 0.19 98 996.9
20260503171334 62 42 4.0 8.0 0.08 0.71 0.17 97 996.7
20260503160134 63 303 2.0 7.0 0.07 0.63 0.07 90 994.6